Flag for Greece Weather past 2 weeks in Chania, Crete, Greece

Now
73 °F

Passing clouds.


Feels Like: 76 °F
Forecast: 72 / 83 °F
Wind: No wind

Location: Souda Airport

Current Time: Sep 18, 2014 at 9:41:59 PM

Latest Report: Sep 18, 2014 at 8:50 PM


Visibility: N/A

Pressure: 30.04 "Hg

Humidity: 65%

Dew point: 61 °F

Location of ChaniaLocation

Historic Weather in Chania — Graph

°F

Chania temperature yesterday

Maximum temperature yesterday: 82 °F (at 2:50 PM)
Minimum temperature yesterday: 70 °F (at 12:20 AM)
Average temperature yesterday: 76 °F

Past Weeks' High & Low Weather Summary

 TemperatureHumidityPressure
High88 °F (Sep 12, 2:50 PM)94% (Sep 10, 5:50 AM)30.04 "Hg (Sep 10, 5:50 AM)
Low68 °F (Sep 10, 5:50 AM)35% (Sep 13, 1:50 PM)29.74 "Hg (Sep 3, 8:20 PM)
Average77 °F68%29.89 "Hg
* Reported Sep 3 8:20 PM — Sep 18 8:20 PM, Chania, Weather by CustomWeather, © 2014

Note: Actual official high and low records may vary slightly from our data, if they occured in-between our weather recording intervals... More about our weather records

Advertising

Chania weather history for previous 24 hours

 ConditionsComfort  
Time TempWeatherWind HumidityBarometerVisibility
8:20 PM
Sep 18
73 °FPassing clouds.5 mph65%30.04 "HgN/A
7:50 PM73 °FPassing clouds.5 mph65%30.04 "HgN/A
7:20 PM75 °FPassing clouds.7 mph57%30.04 "HgN/A
6:50 PM75 °FPassing clouds.7 mph57%30.04 "HgN/A
6:20 PM77 °FPassing clouds.9 mph57%30.01 "HgN/A
5:50 PM77 °FPassing clouds.9 mph57%30.01 "HgN/A
5:20 PM79 °FScattered clouds.12 mph61%30.01 "HgN/A
4:50 PM79 °FScattered clouds.12 mph61%30.01 "HgN/A
4:20 PM79 °FScattered clouds.10 mph58%30.01 "HgN/A
3:50 PM79 °FScattered clouds.10 mph58%30.01 "HgN/A
3:20 PM79 °FScattered clouds.10 mph58%30.01 "HgN/A
2:50 PM79 °FScattered clouds.10 mph58%30.01 "HgN/A
2:20 PM79 °FScattered clouds.12 mph58%30.01 "HgN/A
1:50 PM79 °FScattered clouds.12 mph58%30.01 "HgN/A
1:20 PM79 °FScattered clouds.12 mph58%30.01 "HgN/A
12:50 PM79 °FScattered clouds.12 mph58%30.01 "HgN/A
12:20 PM79 °FScattered clouds.14 mph54%30.01 "HgN/A
11:50 AM79 °FScattered clouds.14 mph54%30.01 "HgN/A
11:20 AM75 °FScattered clouds.12 mph61%30.01 "HgN/A
10:50 AM75 °FPartly sunny.10 mph61%30.01 "HgN/A
10:20 AM77 °FPartly sunny.7 mph54%29.98 "HgN/A
9:50 AM77 °FScattered clouds.7 mph54%29.98 "HgN/A
9:20 AM75 °FScattered clouds.7 mph57%29.98 "HgN/A
8:50 AM75 °FScattered clouds.7 mph57%29.98 "HgN/A
8:20 AM72 °FScattered clouds.5 mph78%29.95 "HgN/A
7:50 AM70 °FPassing clouds.No wind78%29.95 "HgN/A
7:20 AM68 °FPassing clouds.No wind83%29.95 "HgN/A
6:50 AM68 °FPassing clouds.No wind83%29.95 "HgN/A
6:20 AM70 °FPassing clouds.No wind83%29.95 "HgN/A
5:50 AM70 °FPassing clouds.No wind83%29.95 "HgN/A
5:20 AM70 °FPassing clouds.No wind83%29.95 "HgN/A
4:50 AM70 °FPassing clouds.No wind83%29.95 "HgN/A
4:20 AM70 °FPassing clouds.No wind83%29.92 "HgN/A
3:50 AM70 °FPassing clouds.7 mph83%29.92 "HgN/A
3:20 AM70 °FPassing clouds.6 mph83%29.92 "HgN/A
2:50 AM70 °FPassing clouds.No wind83%29.92 "HgN/A
2:20 AM72 °FPassing clouds.No wind78%29.95 "HgN/A
1:50 AM72 °FPassing clouds.No wind78%29.95 "HgN/A
1:20 AM72 °FPassing clouds.No wind78%29.95 "HgN/A
12:50 AM72 °FPassing clouds.No wind78%29.95 "HgN/A
12:20 AM72 °FPassing clouds.No wind78%29.95 "HgN/A
11:50 PM
Sep 17
72 °FPassing clouds.No wind78%29.95 "HgN/A
11:20 PM73 °FPassing clouds.No wind78%29.95 "HgN/A
10:50 PM73 °FPassing clouds.No wind78%29.95 "HgN/A
10:20 PM73 °FPassing clouds.No wind78%29.95 "HgN/A
9:50 PM73 °FPassing clouds.No wind78%29.95 "HgN/A
9:20 PM73 °FPassing clouds.No wind78%29.92 "HgN/A
Weather by CustomWeather, © 2014

See weather overviewHow to use our weather pages